| time (UTC) | temp C | wind direction | speed KPH | gust KPH | rain 1hr cm | rain 24hr cm | rain mn cm | humidity % | barometer mb |
| 20260506104608 | 11 | 108 | 4.8 | 16.1 | 0.00 | 0.00 | 0.00 | 73 | 1007.1 |
| 20260506104108 | 11 | 128 | 4.8 | 11.3 | 0.00 | 0.00 | 0.00 | 73 | 1007.0 |
| 20260506103608 | 12 | 78 | 3.2 | 6.4 | 0.00 | 0.00 | 0.00 | 72 | 1007.2 |
| 20260506103108 | 12 | 105 | 3.2 | 8.0 | 0.00 | 0.00 | 0.00 | 72 | 1007.0 |
| 20260506102608 | 12 | 108 | 4.8 | 8.0 | 0.00 | 0.00 | 0.00 | 72 | 1006.9 |
| 20260506102108 | 12 | 131 | 4.8 | 14.5 | 0.00 | 0.00 | 0.00 | 72 | 1006.8 |
| 20260506101608 | 12 | 96 | 4.8 | 12.9 | 0.00 | 0.00 | 0.00 | 72 | 1006.5 |
| 20260506101108 | 12 | 110 | 6.4 | 16.1 | 0.00 | 0.00 | 0.00 | 72 | 1006.5 |
| 20260506100608 | 12 | 142 | 6.4 | 12.9 | 0.00 | 0.00 | 0.00 | 71 | 1006.5 |
| 20260506100108 | 12 | 123 | 6.4 | 17.7 | 0.00 | 0.00 | 0.00 | 71 | 1006.4 |
| 20260506095608 | 12 | 128 | 4.8 | 14.5 | 0.00 | 0.00 | 0.00 | 71 | 1006.3 |
| 20260506095108 | 12 | 109 | 4.8 | 14.5 | 0.00 | 0.00 | 0.00 | 71 | 1006.3 |
| 20260506094608 | 12 | 130 | 8.0 | 14.5 | 0.00 | 0.00 | 0.00 | 71 | 1006.2 |
| 20260506094108 | 12 | 129 | 11.3 | 16.1 | 0.00 | 0.00 | 0.00 | 71 | 1006.1 |
| 20260506093608 | 12 | 131 | 12.9 | 20.9 | 0.00 | 0.00 | 0.00 | 70 | 1006.2 |
| 20260506093108 | 12 | 130 | 11.3 | 20.9 | 0.00 | 0.00 | 0.00 | 70 | 1006.3 |
| 20260506092608 | 12 | 122 | 9.7 | 22.5 | 0.00 | 0.00 | 0.00 | 70 | 1006.2 |
| 20260506092108 | 12 | 144 | 11.3 | 20.9 | 0.00 | 0.00 | 0.00 | 70 | 1006.1 |
| 20260506091608 | 12 | 117 | 14.5 | 22.5 | 0.00 | 0.00 | 0.00 | 70 | 1006.1 |
| 20260506091108 | 13 | 118 | 14.5 | 24.1 | 0.00 | 0.00 | 0.00 | 69 | 1005.9 |
| 20260506090608 | 13 | 139 | 14.5 | 22.5 | 0.00 | 0.00 | 0.00 | 69 | 1006.3 |
| 20260506090108 | 13 | 121 | 14.5 | 25.7 | 0.00 | 0.00 | 0.00 | 69 | 1006.2 |
| 20260506085608 | 13 | 119 | 11.3 | 24.1 | 0.00 | 0.00 | 0.00 | 68 | 1005.9 |
| 20260506085108 | 13 | 121 | 12.9 | 19.3 | 0.00 | 0.00 | 0.00 | 68 | 1005.9 |
| 20260506084608 | 13 | 112 | 14.5 | 20.9 | 0.00 | 0.00 | 0.00 | 68 | 1005.8 |
| 20260506084108 | 13 | 125 | 14.5 | 22.5 | 0.00 | 0.00 | 0.00 | 68 | 1005.8 |
| 20260506083608 | 13 | 126 | 16.1 | 24.1 | 0.00 | 0.00 | 0.00 | 67 | 1005.9 |
| 20260506083108 | 13 | 136 | 16.1 | 24.1 | 0.00 | 0.00 | 0.00 | 67 | 1005.8 |
| 20260506082608 | 14 | 140 | 16.1 | 24.1 | 0.00 | 0.00 | 0.00 | 67 | 1006.0 |
| 20260506082108 | 14 | 128 | 16.1 | 25.7 | 0.00 | 0.00 | 0.00 | 66 | 1005.9 |
| 20260506081608 | 14 | 127 | 16.1 | 25.7 | 0.00 | 0.00 | 0.00 | 66 | 1005.9 |
| 20260506081108 | 15 | 139 | 14.5 | 29.0 | 0.00 | 0.00 | 0.00 | 66 | 1005.7 |
| 20260506080608 | 15 | 136 | 12.9 | 20.9 | 0.00 | 0.00 | 0.00 | 66 | 1005.6 |
| 20260506080108 | 15 | 107 | 12.9 | 20.9 | 0.00 | 0.00 | 0.00 | 65 | 1005.7 |
| 20260506073108 | 16 | 134 | 6.4 | 20.9 | 0.00 | 0.00 | 0.00 | 61 | 1005.4 |
| 20260506072608 | 16 | 125 | 9.7 | 16.1 | 0.00 | 0.00 | 0.00 | 60 | 1005.2 |
| 20260506072108 | 16 | 121 | 9.7 | 20.9 | 0.00 | 0.00 | 0.00 | 60 | 1005.2 |
| 20260506071608 | 17 | 128 | 8.0 | 22.5 | 0.00 | 0.00 | 0.00 | 59 | 1005.2 |
| 20260506071108 | 17 | 117 | 8.0 | 14.5 | 0.00 | 0.00 | 0.00 | 58 | 1005.2 |
| 20260506070608 | 17 | 129 | 8.0 | 19.3 | 0.00 | 0.00 | 0.00 | 58 | 1005.3 |
| 20260506070108 | 17 | 115 | 6.4 | 19.3 | 0.00 | 0.00 | 0.00 | 57 | 1005.3 |
| 20260506062108 | 19 | 105 | 6.4 | 16.1 | 0.00 | 0.00 | 0.00 | 51 | 1005.0 |
| 20260506061608 | 19 | 145 | 8.0 | 14.5 | 0.00 | 0.00 | 0.00 | 50 | 1005.1 |
| 20260506061108 | 19 | 148 | 8.0 | 17.7 | 0.00 | 0.00 | 0.00 | 50 | 1005.0 |
| 20260506060608 | 20 | 128 | 6.4 | 17.7 | 0.00 | 0.00 | 0.00 | 50 | 1005.0 |
| 20260506060108 | 20 | 129 | 6.4 | 16.1 | 0.00 | 0.00 | 0.00 | 49 | 1004.9 |
| 20260506051108 | 21 | 142 | 0.0 | 8.0 | 0.00 | 0.00 | 0.00 | 44 | 1004.6 |
| 20260506050608 | 21 | 126 | 1.6 | 4.8 | 0.00 | 0.00 | 0.00 | 43 | 1004.6 |
| 20260506050108 | 22 | 132 | 1.6 | 12.9 | 0.00 | 0.00 | 0.00 | 42 | 1004.6 |
| 20260506045108 | 22 | 135 | 4.8 | 14.5 | 0.00 | 0.00 | 0.00 | 40 | 1004.6 |
| 20260506044608 | 22 | 128 | 1.6 | 11.3 | 0.00 | 0.00 | 0.00 | 39 | 1004.4 |
| 20260506044108 | 22 | 182 | 1.6 | 4.8 | 0.00 | 0.00 | 0.00 | 38 | 1004.1 |
| 20260506043608 | 22 | 236 | 1.6 | 4.8 | 0.00 | 0.00 | 0.00 | 36 | 1003.9 |
| 20260506043108 | 22 | 241 | 0.0 | 1.6 | 0.00 | 0.00 | 0.00 | 36 | 1003.8 |
| 20260506042608 | 23 | 241 | 0.0 | 0.0 | 0.00 | 0.00 | 0.00 | 36 | 1003.8 |
| 20260506042108 | 23 | 241 | 0.0 | 0.0 | 0.00 | 0.00 | 0.00 | 36 | 1003.8 |
| 20260506041608 | 23 | 241 | 0.0 | 1.6 | 0.00 | 0.00 | 0.00 | 36 | 1003.8 |
| 20260506041108 | 23 | 242 | 1.6 | 3.2 | 0.00 | 0.00 | 0.00 | 35 | 1003.7 |
| 20260506040608 | 23 | 242 | 3.2 | 6.4 | 0.00 | 0.00 | 0.00 | 35 | 1003.6 |
| 20260506040108 | 23 | 247 | 3.2 | 8.0 | 0.00 | 0.00 | 0.00 | 35 | 1003.3 |
| 20260506035608 | 23 | 245 | 4.8 | 6.4 | 0.00 | 0.00 | 0.00 | 35 | 1003.3 |
| 20260506035108 | 23 | 246 | 3.2 | 9.7 | 0.00 | 0.00 | 0.00 | 35 | 1003.4 |
| 20260506034608 | 23 | 234 | 3.2 | 3.2 | 0.00 | 0.00 | 0.00 | 36 | 1003.3 |
| 20260506034109 | 23 | 234 | 3.2 | 8.0 | 0.00 | 0.00 | 0.00 | 35 | 1003.3 |
| 20260506033608 | 23 | 240 | 3.2 | 6.4 | 0.00 | 0.00 | 0.00 | 35 | 1003.3 |
| 20260506033108 | 23 | 240 | 3.2 | 6.4 | 0.00 | 0.00 | 0.00 | 35 | 1003.1 |
| 20260506032609 | 23 | 242 | 4.8 | 6.4 | 0.00 | 0.00 | 0.00 | 35 | 1003.1 |
| 20260506032109 | 23 | 246 | 3.2 | 6.4 | 0.00 | 0.00 | 0.00 | 35 | 1003.2 |
| 20260506031609 | 23 | 240 | 3.2 | 6.4 | 0.00 | 0.00 | 0.00 | 35 | 1003.1 |
| 20260506031109 | 23 | 235 | 4.8 | 6.4 | 0.00 | 0.00 | 0.00 | 35 | 1003.1 |
| 20260506030609 | 23 | 236 | 3.2 | 6.4 | 0.00 | 0.00 | 0.00 | 34 | 1003.1 |
| 20260506030109 | 23 | 248 | 3.2 | 4.8 | 0.00 | 0.00 | 0.00 | 34 | 1002.9 |
| 20260506025609 | 24 | 249 | 3.2 | 6.4 | 0.00 | 0.00 | 0.00 | 34 | 1002.8 |
| 20260506025109 | 24 | 252 | 3.2 | 6.4 | 0.00 | 0.00 | 0.00 | 34 | 1002.7 |
| 20260506024609 | 25 | 261 | 1.6 | 6.4 | 0.00 | 0.00 | 0.00 | 33 | 1002.5 |
| 20260506024109 | 25 | 288 | 0.0 | 0.0 | 0.00 | 0.00 | 0.00 | 32 | 1002.3 |
| 20260506023609 | 25 | 288 | 0.0 | 1.6 | 0.00 | 0.00 | 0.00 | 31 | 1002.1 |
| 20260506023109 | 25 | 288 | 1.6 | 4.8 | 0.00 | 0.00 | 0.00 | 31 | 1002.2 |
| 20260506022609 | 25 | 286 | 1.6 | 3.2 | 0.00 | 0.00 | 0.00 | 30 | 1002.1 |
| 20260506022109 | 25 | 286 | 1.6 | 3.2 | 0.00 | 0.00 | 0.00 | 30 | 1002.2 |
| 20260506021609 | 25 | 282 | 1.6 | 1.6 | 0.00 | 0.00 | 0.00 | 30 | 1002.3 |
| 20260506021109 | 26 | 281 | 1.6 | 3.2 | 0.00 | 0.00 | 0.00 | 30 | 1002.5 |
| 20260506020609 | 25 | 281 | 1.6 | 4.8 | 0.00 | 0.00 | 0.00 | 30 | 1002.6 |
| 20260506020109 | 26 | 277 | 1.6 | 4.8 | 0.00 | 0.00 | 0.00 | 30 | 1002.5 |
| 20260506015609 | 26 | 289 | 1.6 | 4.8 | 0.00 | 0.00 | 0.00 | 29 | 1002.5 |
| 20260506015109 | 26 | 287 | 1.6 | 4.8 | 0.00 | 0.00 | 0.00 | 29 | 1002.5 |
| 20260506014609 | 26 | 302 | 3.2 | 4.8 | 0.00 | 0.00 | 0.00 | 29 | 1002.5 |
| 20260506014109 | 26 | 307 | 4.8 | 8.0 | 0.00 | 0.00 | 0.00 | 28 | 1002.3 |
| 20260506013609 | 26 | 300 | 4.8 | 11.3 | 0.00 | 0.00 | 0.00 | 28 | 1002.3 |
| 20260506013109 | 26 | 297 | 6.4 | 12.9 | 0.00 | 0.00 | 0.00 | 28 | 1002.2 |
| 20260506012609 | 26 | 311 | 6.4 | 11.3 | 0.00 | 0.00 | 0.00 | 28 | 1002.2 |
| 20260506012109 | 26 | 292 | 6.4 | 16.1 | 0.00 | 0.00 | 0.00 | 28 | 1002.2 |
| 20260506011609 | 26 | 309 | 8.0 | 14.5 | 0.00 | 0.00 | 0.00 | 27 | 1002.2 |
| 20260506011109 | 27 | 325 | 9.7 | 16.1 | 0.00 | 0.00 | 0.00 | 27 | 1002.3 |
| 20260506010609 | 27 | 277 | 9.7 | 17.7 | 0.00 | 0.00 | 0.00 | 27 | 1002.3 |
| 20260506010109 | 27 | 311 | 8.0 | 17.7 | 0.00 | 0.00 | 0.00 | 27 | 1002.2 |
| 20260506005609 | 27 | 311 | 8.0 | 16.1 | 0.00 | 0.00 | 0.00 | 27 | 1002.2 |
| 20260506005109 | 27 | 301 | 8.0 | 16.1 | 0.00 | 0.00 | 0.00 | 27 | 1002.2 |
| 20260506004609 | 27 | 295 | 11.3 | 20.9 | 0.00 | 0.00 | 0.00 | 27 | 1002.2 |
| 20260506004109 | 27 | 315 | 9.7 | 22.5 | 0.00 | 0.00 | 0.00 | 27 | 1002.3 |
| 20260506003609 | 27 | 304 | 11.3 | 19.3 | 0.00 | 0.00 | 0.00 | 27 | 1002.2 |
| 20260506003109 | 27 | 290 | 14.5 | 25.7 | 0.00 | 0.00 | 0.00 | 26 | 1002.2 |
| 20260506002609 | 27 | 292 | 16.1 | 29.0 | 0.00 | 0.00 | 0.00 | 26 | 1002.3 |
| 20260506002109 | 27 | 292 | 14.5 | 33.8 | 0.00 | 0.00 | 0.00 | 26 | 1002.4 |
| 20260506001609 | 27 | 297 | 14.5 | 24.1 | 0.00 | 0.00 | 0.00 | 26 | 1002.3 |
| 20260506001109 | 28 | 277 | 17.7 | 27.4 | 0.00 | 0.00 | 0.00 | 25 | 1002.3 |
| 20260506000609 | 28 | 286 | 17.7 | 33.8 | 0.00 | 0.00 | 0.00 | 25 | 1002.3 |
| 20260506000109 | 28 | 248 | 12.9 | 38.6 | 0.00 | 0.00 | 0.00 | 24 | 1002.1 |
| 20260505235609 | 28 | 290 | 11.3 | 20.9 | 0.00 | 0.00 | 0.00 | 24 | 1002.0 |
| 20260505235109 | 28 | 295 | 11.3 | 20.9 | 0.00 | 0.00 | 0.00 | 24 | 1001.9 |
| 20260505234609 | 28 | 301 | 12.9 | 27.4 | 0.00 | 0.00 | 0.00 | 23 | 1001.9 |
| 20260505234109 | 28 | 299 | 12.9 | 25.7 | 0.00 | 0.00 | 0.00 | 22 | 1001.8 |
| 20260505233609 | 28 | 326 | 9.7 | 22.5 | 0.00 | 0.00 | 0.00 | 24 | 1001.6 |
| 20260505233109 | 28 | 277 | 11.3 | 20.9 | 0.00 | 0.00 | 0.00 | 24 | 1001.5 |
| 20260505232609 | 29 | 275 | 9.7 | 17.7 | 0.00 | 0.00 | 0.00 | 23 | 1001.4 |
| 20260505232109 | 29 | 287 | 8.0 | 16.1 | 0.00 | 0.00 | 0.00 | 24 | 1001.4 |
| 20260505231609 | 29 | 340 | 8.0 | 14.5 | 0.00 | 0.00 | 0.00 | 24 | 1001.3 |
| 20260505231109 | 29 | 313 | 6.4 | 14.5 | 0.00 | 0.00 | 0.00 | 24 | 1001.5 |
| 20260505230609 | 28 | 304 | 6.4 | 16.1 | 0.00 | 0.00 | 0.00 | 25 | 1001.4 |
| 20260505230109 | 28 | 23 | 8.0 | 16.1 | 0.00 | 0.00 | 0.00 | 24 | 1001.4 |
| 20260505225609 | 28 | 26 | 8.0 | 16.1 | 0.00 | 0.00 | 0.00 | 24 | 1001.6 |
| 20260505225109 | 28 | 26 | 8.0 | 19.3 | 0.00 | 0.00 | 0.00 | 24 | 1001.7 |
| 20260505224609 | 28 | 298 | 9.7 | 19.3 | 0.00 | 0.00 | 0.00 | 24 | 1001.7 |
| 20260505224109 | 28 | 322 | 8.0 | 17.7 | 0.00 | 0.00 | 0.00 | 24 | 1001.7 |
| 20260505223609 | 28 | 333 | 8.0 | 16.1 | 0.00 | 0.00 | 0.00 | 24 | 1001.6 |
| 20260505223109 | 28 | 329 | 11.3 | 22.5 | 0.00 | 0.00 | 0.00 | 24 | 1001.6 |
| 20260505222609 | 28 | 310 | 11.3 | 22.5 | 0.00 | 0.00 | 0.00 | 23 | 1001.7 |
| 20260505222109 | 28 | 317 | 12.9 | 25.7 | 0.00 | 0.00 | 0.00 | 23 | 1001.8 |
| 20260505221609 | 28 | 335 | 14.5 | 27.4 | 0.00 | 0.00 | 0.00 | 23 | 1001.8 |
| 20260505221109 | 28 | 328 | 12.9 | 27.4 | 0.00 | 0.00 | 0.00 | 23 | 1001.9 |
| 20260505220609 | 28 | 5 | 9.7 | 20.9 | 0.00 | 0.00 | 0.00 | 23 | 1001.9 |
| 20260505220109 | 28 | 325 | 11.3 | 25.7 | 0.00 | 0.00 | 0.00 | 23 | 1001.7 |
| 20260505215609 | 28 | 331 | 11.3 | 27.4 | 0.00 | 0.00 | 0.00 | 22 | 1001.9 |
| 20260505215109 | 28 | 338 | 12.9 | 22.5 | 0.00 | 0.00 | 0.00 | 22 | 1002.1 |
| 20260505214609 | 28 | 23 | 14.5 | 27.4 | 0.00 | 0.00 | 0.00 | 22 | 1002.2 |
| 20260505214111 | 28 | 0 | 14.5 | 29.0 | 0.00 | 0.00 | 0.00 | 22 | 1002.2 |
| 20260505213609 | 28 | 9 | 16.1 | 30.6 | 0.00 | 0.00 | 0.00 | 22 | 1002.3 |
| 20260505213109 | 29 | 314 | 16.1 | 32.2 | 0.00 | 0.00 | 0.00 | 21 | 1002.4 |
| 20260505212609 | 29 | 303 | 16.1 | 33.8 | 0.00 | 0.00 | 0.00 | 22 | 1002.3 |
| 20260505212109 | 29 | 316 | 16.1 | 33.8 | 0.00 | 0.00 | 0.00 | 22 | 1002.3 |
| 20260505211609 | 29 | 329 | 16.1 | 35.4 | 0.00 | 0.00 | 0.00 | 21 | 1002.2 |
| 20260505211109 | 30 | 277 | 12.9 | 32.2 | 0.00 | 0.00 | 0.00 | 21 | 1001.9 |
| 20260505210609 | 30 | 326 | 14.5 | 25.7 | 0.00 | 0.00 | 0.00 | 21 | 1002.1 |
| 20260505210109 | 30 | 17 | 17.7 | 30.6 | 0.00 | 0.00 | 0.00 | 20 | 1002.0 |
| 20260505205609 | 30 | 5 | 16.1 | 35.4 | 0.00 | 0.00 | 0.00 | 20 | 1002.2 |
| 20260505205109 | 30 | 324 | 16.1 | 29.0 | 0.00 | 0.00 | 0.00 | 20 | 1002.4 |
| 20260505204609 | 30 | 333 | 16.1 | 30.6 | 0.00 | 0.00 | 0.00 | 20 | 1002.5 |
| 20260505204109 | 30 | 0 | 12.9 | 29.0 | 0.00 | 0.00 | 0.00 | 21 | 1002.4 |
| 20260505203609 | 30 | 312 | 12.9 | 22.5 | 0.00 | 0.00 | 0.00 | 21 | 1002.2 |
| 20260505203109 | 30 | 313 | 16.1 | 24.1 | 0.00 | 0.00 | 0.00 | 22 | 1002.2 |
| 20260505202609 | 30 | 292 | 16.1 | 32.2 | 0.00 | 0.00 | 0.00 | 22 | 1002.2 |
| 20260505202109 | 30 | 303 | 17.7 | 30.6 | 0.00 | 0.00 | 0.00 | 21 | 1002.3 |
| 20260505201609 | 30 | 321 | 19.3 | 32.2 | 0.00 | 0.00 | 0.00 | 22 | 1002.4 |
| 20260505201109 | 30 | 319 | 17.7 | 32.2 | 0.00 | 0.00 | 0.00 | 21 | 1002.3 |
| 20260505200609 | 30 | 331 | 17.7 | 35.4 | 0.00 | 0.00 | 0.00 | 21 | 1002.2 |
| 20260505200109 | 30 | 346 | 17.7 | 32.2 | 0.00 | 0.00 | 0.00 | 21 | 1002.4 |
| 20260505195609 | 30 | 294 | 17.7 | 32.2 | 0.00 | 0.00 | 0.00 | 21 | 1002.4 |
| 20260505195109 | 31 | 15 | 17.7 | 33.8 | 0.00 | 0.00 | 0.00 | 20 | 1002.5 |
| 20260505194609 | 31 | 328 | 19.3 | 30.6 | 0.00 | 0.00 | 0.00 | 20 | 1002.5 |
| 20260505194109 | 31 | 270 | 17.7 | 33.8 | 0.00 | 0.00 | 0.00 | 21 | 1002.4 |
| 20260505193609 | 31 | 262 | 14.5 | 37.0 | 0.00 | 0.00 | 0.00 | 21 | 1002.4 |
| 20260505193109 | 31 | 329 | 16.1 | 25.7 | 0.00 | 0.00 | 0.00 | 21 | 1002.2 |
| 20260505192609 | 31 | 286 | 16.1 | 33.8 | 0.00 | 0.00 | 0.00 | 20 | 1002.4 |
| 20260505192109 | 31 | 348 | 14.5 | 32.2 | 0.00 | 0.00 | 0.00 | 20 | 1002.3 |
| 20260505191610 | 31 | 319 | 14.5 | 25.7 | 0.00 | 0.00 | 0.00 | 21 | 1002.2 |
| 20260505191109 | 31 | 219 | 12.9 | 25.7 | 0.00 | 0.00 | 0.00 | 21 | 1002.4 |
| 20260505190610 | 31 | 265 | 14.5 | 27.4 | 0.00 | 0.00 | 0.00 | 20 | 1002.3 |
| 20260505190110 | 31 | 342 | 17.7 | 25.7 | 0.00 | 0.00 | 0.00 | 20 | 1002.4 |
| 20260505185610 | 32 | 308 | 16.1 | 29.0 | 0.00 | 0.00 | 0.00 | 20 | 1002.5 |
| 20260505185110 | 32 | 298 | 14.5 | 27.4 | 0.00 | 0.00 | 0.00 | 20 | 1002.6 |
| 20260505184610 | 31 | 284 | 16.1 | 33.8 | 0.00 | 0.00 | 0.00 | 20 | 1002.7 |
| 20260505184110 | 31 | 302 | 16.1 | 33.8 | 0.00 | 0.00 | 0.00 | 20 | 1002.6 |
| 20260505183610 | 31 | 299 | 14.5 | 24.1 | 0.00 | 0.00 | 0.00 | 20 | 1002.8 |
| 20260505183110 | 31 | 334 | 14.5 | 38.6 | 0.00 | 0.00 | 0.00 | 20 | 1002.8 |
| 20260505182610 | 31 | 286 | 12.9 | 27.4 | 0.00 | 0.00 | 0.00 | 20 | 1002.7 |
| 20260505182110 | 31 | 322 | 14.5 | 27.4 | 0.00 | 0.00 | 0.00 | 21 | 1002.6 |
| 20260505181610 | 31 | 273 | 14.5 | 27.4 | 0.00 | 0.00 | 0.00 | 20 | 1002.7 |
| 20260505181110 | 31 | 267 | 12.9 | 29.0 | 0.00 | 0.00 | 0.00 | 21 | 1002.7 |
| 20260505180610 | 31 | 306 | 11.3 | 22.5 | 0.00 | 0.00 | 0.00 | 20 | 1002.8 |
| 20260505180110 | 31 | 321 | 11.3 | 22.5 | 0.00 | 0.00 | 0.00 | 21 | 1002.6 |
| 20260505175610 | 31 | 317 | 11.3 | 20.9 | 0.00 | 0.00 | 0.00 | 21 | 1003.0 |
| 20260505175110 | 31 | 355 | 9.7 | 22.5 | 0.00 | 0.00 | 0.00 | 20 | 1003.1 |
| 20260505174610 | 31 | 293 | 9.7 | 22.5 | 0.00 | 0.00 | 0.00 | 21 | 1002.8 |
| 20260505174110 | 31 | 294 | 9.7 | 22.5 | 0.00 | 0.00 | 0.00 | 23 | 1002.9 |
| 20260505173610 | 30 | 261 | 8.0 | 16.1 | 0.00 | 0.00 | 0.00 | 23 | 1003.0 |
| 20260505173110 | 30 | 345 | 8.0 | 22.5 | 0.00 | 0.00 | 0.00 | 22 | 1003.0 |
| 20260505172610 | 30 | 33 | 8.0 | 19.3 | 0.00 | 0.00 | 0.00 | 23 | 1003.1 |
| 20260505172110 | 30 | 33 | 8.0 | 17.7 | 0.00 | 0.00 | 0.00 | 24 | 1003.2 |
| 20260505171610 | 30 | 19 | 8.0 | 19.3 | 0.00 | 0.00 | 0.00 | 23 | 1003.2 |
| 20260505171110 | 30 | 24 | 8.0 | 17.7 | 0.00 | 0.00 | 0.00 | 23 | 1003.2 |
| 20260505170610 | 29 | 24 | 8.0 | 17.7 | 0.00 | 0.00 | 0.00 | 24 | 1003.1 |
| 20260505170110 | 29 | 11 | 9.7 | 16.1 | 0.00 | 0.00 | 0.00 | 23 | 1003.2 |
| 20260505165610 | 29 | 27 | 8.0 | 19.3 | 0.00 | 0.00 | 0.00 | 24 | 1003.2 |
| 20260505165110 | 28 | 314 | 8.0 | 19.3 | 0.00 | 0.00 | 0.00 | 25 | 1003.1 |
| 20260505164610 | 28 | 17 | 9.7 | 20.9 | 0.00 | 0.00 | 0.00 | 25 | 1003.2 |
| 20260505164110 | 28 | 329 | 9.7 | 16.1 | 0.00 | 0.00 | 0.00 | 26 | 1003.2 |
| 20260505163610 | 28 | 299 | 9.7 | 17.7 | 0.00 | 0.00 | 0.00 | 25 | 1003.3 |
| 20260505163110 | 28 | 340 | 6.4 | 16.1 | 0.00 | 0.00 | 0.00 | 27 | 1003.3 |
| 20260505162610 | 27 | 297 | 8.0 | 17.7 | 0.00 | 0.00 | 0.00 | 28 | 1003.3 |
| 20260505162112 | 27 | 317 | 11.3 | 20.9 | 0.00 | 0.00 | 0.00 | 28 | 1003.4 |
| 20260505161612 | 27 | 326 | 9.7 | 19.3 | 0.00 | 0.00 | 0.00 | 28 | 1003.2 |
| 20260505161110 | 27 | 5 | 8.0 | 16.1 | 0.00 | 0.00 | 0.00 | 29 | 1003.2 |
| 20260505160610 | 27 | 311 | 6.4 | 16.1 | 0.00 | 0.00 | 0.00 | 32 | 1003.2 |
| 20260505160110 | 26 | 324 | 6.4 | 14.5 | 0.00 | 0.00 | 0.00 | 35 | 1003.1 |
| 20260505153110 | 25 | 316 | 9.7 | 20.9 | 0.00 | 0.00 | 0.00 | 48 | 1003.1 |
| 20260505152610 | 25 | 311 | 8.0 | 16.1 | 0.00 | 0.00 | 0.00 | 49 | 1002.9 |
| 20260505152110 | 24 | 306 | 8.0 | 16.1 | 0.00 | 0.00 | 0.00 | 50 | 1002.8 |
| 20260505151613 | 24 | 313 | 9.7 | 16.1 | 0.00 | 0.00 | 0.00 | 51 | 1002.8 |
| 20260505151112 | 23 | 307 | 9.7 | 16.1 | 0.00 | 0.00 | 0.00 | 53 | 1002.8 |
| 20260505150610 | 23 | 311 | 9.7 | 19.3 | 0.00 | 0.00 | 0.00 | 53 | 1002.8 |
| 20260505150114 | 23 | 306 | 9.7 | 14.5 | 0.00 | 0.00 | 0.00 | 56 | 1002.8 |
| 20260505140610 | 21 | 254 | 12.9 | 20.9 | 0.00 | 0.00 | 0.00 | 69 | 1002.3 |
| 20260505140110 | 21 | 241 | 12.9 | 22.5 | 0.00 | 0.00 | 0.00 | 71 | 1002.1 |
| 20260505130110 | 18 | 248 | 16.1 | 24.1 | 0.00 | 0.00 | 0.00 | 80 | 1001.7 |
| 20260505124610 | 18 | 266 | 14.5 | 24.1 | 0.00 | 0.00 | 0.00 | 80 | 1001.5 |
| 20260505124110 | 18 | 265 | 14.5 | 22.5 | 0.00 | 0.00 | 0.00 | 80 | 1001.5 |
| 20260505123610 | 18 | 259 | 12.9 | 24.1 | 0.00 | 0.00 | 0.00 | 80 | 1001.4 |
| 20260505123110 | 18 | 271 | 12.9 | 22.5 | 0.00 | 0.00 | 0.00 | 80 | 1001.3 |
| 20260505122610 | 18 | 261 | 14.5 | 20.9 | 0.00 | 0.00 | 0.00 | 80 | 1001.2 |
| 20260505122110 | 18 | 241 | 16.1 | 22.5 | 0.00 | 0.00 | 0.00 | 80 | 1001.3 |
| 20260505121610 | 18 | 243 | 16.1 | 30.6 | 0.00 | 0.00 | 0.00 | 80 | 1001.1 |
| 20260505121110 | 18 | 241 | 14.5 | 24.1 | 0.00 | 0.00 | 0.00 | 80 | 1001.0 |
| 20260505120610 | 18 | 279 | 16.1 | 24.1 | 0.00 | 0.00 | 0.00 | 79 | 1001.0 |
| 20260505120110 | 18 | 267 | 16.1 | 22.5 | 0.00 | 0.00 | 0.00 | 79 | 1000.9 |
| 20260505115610 | 18 | 254 | 14.5 | 25.7 | 0.00 | 0.00 | 0.00 | 79 | 1000.9 |
| 20260505115110 | 18 | 248 | 12.9 | 25.7 | 0.00 | 0.00 | 0.00 | 79 | 1000.9 |
| 20260505114610 | 18 | 244 | 12.9 | 19.3 | 0.00 | 0.00 | 0.00 | 78 | 1000.9 |
| 20260505114110 | 19 | 232 | 14.5 | 20.9 | 0.00 | 0.00 | 0.00 | 78 | 1001.0 |
| 20260505113610 | 19 | 261 | 14.5 | 25.7 | 0.00 | 0.00 | 0.00 | 78 | 1000.9 |
| 20260505113110 | 19 | 255 | 14.5 | 25.7 | 0.00 | 0.00 | 0.00 | 78 | 1001.0 |
| 20260505112610 | 19 | 242 | 14.5 | 25.7 | 0.00 | 0.00 | 0.00 | 77 | 1001.0 |
| 20260505112110 | 19 | 256 | 14.5 | 30.6 | 0.00 | 0.00 | 0.00 | 77 | 1001.0 |
| 20260505111610 | 19 | 251 | 14.5 | 20.9 | 0.00 | 0.00 | 0.00 | 77 | 1000.9 |
| 20260505111110 | 19 | 236 | 16.1 | 29.0 | 0.00 | 0.00 | 0.00 | 77 | 1000.8 |
| 20260505110610 | 19 | 279 | 16.1 | 30.6 | 0.00 | 0.00 | 0.00 | 77 | 1000.9 |
| 20260505110110 | 20 | 268 | 16.1 | 29.0 | 0.00 | 0.00 | 0.00 | 76 | 1000.8 |